Terminal Aerodrome Forecast
Issued by NWS

Home | Current Version | Previous Version | Graphics & Text | Print | Product List | Glossary On
Versions: 1 2 3 4 5 6 7 8 9 10 11 12 13 14 15 16 17 18 19 20 21 22
000
FTUS43 KMPX 201720
TAFAXN
TAF
KAXN 201720Z 2018/2118 17011KT 4SM BR BKN006 OVC015
      TEMPO 2018/2020 2SM -RA BR OVC006
     FM202100 24013KT 3SM BR VCSH SCT007 OVC012
     FM210000 28012G18KT P6SM SCT015 BKN040
     FM210300 28008KT P6SM SKC
     FM210700 23005KT 2SM BR SCT007
     FM211400 19008KT P6SM SCT250=

USA.gov is the U.S. government's official web portal to all federal, state and local government web resources and services.